ONEWEB-0687

operational
NORAD ID: 61595 Int'l Des: 2024-188 Owner: ONEWEBE Country: UK Constellation: oneweb
LEOCIRCULARPOLARONEWEB_TYPE

About ONEWEB-0687

Description loading...

Live Position

Loading 3D Globe...

Upcoming Passes

Altitude History

Altitude vs Time

uPlot chart will show altitude changes over time

Two-Line Element Set

1 61595U 24188B 25251.50758263 .00000021 00000-0 20726-4 0 9994
2 61595 87.9029 61.9439 0002287 101.1356 259.0033 13.17651261 48806
Epoch: Sep 8, 2025 • Age: 15 hours

Current Status

Altitude 1195.4 km
Velocity 7.26 km/s
Sub-Earth Point 21.35°N, 160.9°W
Launch Date Oct 20, 2024
Age 0.8 years
Type internet

Technical Details

Classification Payload
Mass 148.00 kg
Dry Mass 140.00 kg
Total Mass 148.00 kg
Length 1.30 m
Diameter 1.00 m
Span 5.00 m
Shape Trapezoid+2 pan
Manufacturer ONEWUS
Bus Type ARROW
Phase Status In Orbit
Owner/State ONEWEBE/UK

Large Constellations

Loading constellations...